Weather History for Minot AFB, ND

Change the Weather History Date:

Friday, March 1, 2013

  Actual Average Record
Temperature  
Mean Temperature 20 °F -  
Max Temperature 25 °F 19 °F 41 °F (2005)
Min Temperature 16 °F 3 °F -25 °F (2014)
Degree Days  
Heating Degree Days 44    
Moisture  
Dew Point 18 °F    
Average Humidity 89    
Maximum Humidity 93    
Minimum Humidity 82    
Precipitation  
Precipitation 0.00 in - - ()
Snow  
Snow 0.00 in - - ()
Snow Depth 8.00 in    
Sea Level Pressure  
Sea Level Pressure 30.37 in    
Wind  
Wind Speed 11 mph (SE)    
Max Wind Speed 15 mph    
Max Gust Speed -    
Visibility 10 miles    
Events      
Averages and records for this station are not official NWS values.
T = Trace of Precipitation, MM = Missing Value Source: NWS Daily Summary

Daily Weather History Graph

Daily Weather History Graph

Search for Another Location

Airport:

Trip Planner

Search our weather history database for the weather conditions in past years. The results will help you decide how hot, cold, wet, or windy it might be!

Date:

Astronomy

Mar. 01, 2013 Rise Set
Actual Time 7:26 AM CST 6:29 PM CST
Civil Twilight 6:54 AM CST 7:01 PM CST
Nautical Twilight 6:18 AM CST 7:37 PM CST
Astronomical Twilight 5:42 AM CST 8:13 PM CST
Moon 11:32 PM CST (3/1) 8:50 AM CST (3/1)
Length of Visible Light 12h 06m
Length of Day
11h 03m
Waning Gibbous, 83% of the Moon is Illuminated
Mar 1
Waning Gibbous
Mar 4
Last Quarter
Mar 11
New
Mar 19
First Quarter
Mar 27
Full

Hourly Weather History & Observations

Time (CST) Temp. Windchill Dew Point Humidity Pressure Visibility Wind Dir Wind Speed Gust Speed Precip Events Conditions
12:35 AM 19.4 °F 7.9 °F 17.6 °F 93% 30.38 in 10.0 mi SE 10.4 mph - N/A   Overcast
12:48 AM 19.4 °F 7.2 °F 17.6 °F 93% 30.38 in 10.0 mi SE 11.5 mph - N/A   Overcast
12:55 AM 19.9 °F 7.9 °F 17.1 °F 89% 30.38 in 10.0 mi SE 11.5 mph - N/A   Overcast
1:55 AM 19.2 °F 6.4 °F 16.5 °F 89% 30.38 in 10.0 mi ESE 12.7 mph - N/A   Overcast
2:42 AM 19.4 °F 7.2 °F 15.8 °F 86% 30.39 in 10.0 mi SE 11.5 mph - N/A   Overcast
2:47 AM 19.4 °F 7.2 °F 15.8 °F 86% 30.39 in 10.0 mi SE 11.5 mph - N/A   Overcast
2:51 AM 19.4 °F 7.2 °F 15.8 °F 86% 30.39 in 10.0 mi SE 11.5 mph - N/A   Overcast
2:55 AM 18.5 °F 6.8 °F 16.0 °F 90% 30.39 in 10.0 mi SE 10.4 mph - N/A   Overcast
3:55 AM 18.0 °F 5.4 °F 15.4 °F 90% 30.39 in 10.0 mi ESE 11.5 mph - N/A   Overcast
4:05 AM 17.6 °F 5.7 °F 15.8 °F 93% 30.39 in 10.0 mi SE 10.4 mph - N/A   Overcast
4:53 AM 17.6 °F 5.7 °F 15.8 °F 93% 30.40 in 10.0 mi SE 10.4 mph - N/A   Overcast
4:55 AM 17.6 °F 5.7 °F 15.4 °F 91% 30.40 in 10.0 mi SE 10.4 mph - N/A   Overcast
5:26 AM 17.6 °F 5.7 °F 15.8 °F 93% 30.40 in 10.0 mi SE 10.4 mph - N/A   Overcast
5:55 AM 17.1 °F 5.0 °F 14.9 °F 91% 30.41 in 10.0 mi SE 10.4 mph - N/A   Overcast
6:04 AM 17.6 °F 5.0 °F 15.8 °F 93% 30.42 in 10.0 mi SE 11.5 mph - N/A   Overcast
6:18 AM 17.6 °F 5.7 °F 15.8 °F 93% 30.42 in 10.0 mi SE 10.4 mph - N/A   Overcast
6:55 AM 17.1 °F 5.8 °F 15.1 °F 92% 30.43 in 10.0 mi SE 9.2 mph - N/A   Overcast
7:55 AM 16.9 °F 4.8 °F 14.5 °F 91% 30.43 in 10.0 mi SE 10.4 mph - N/A   Overcast
8:24 AM 17.6 °F 5.0 °F 14.0 °F 86% 30.43 in 10.0 mi SSE 11.5 mph - N/A   Overcast
8:55 AM 17.2 °F 4.5 °F 15.1 °F 91% 30.43 in 10.0 mi SSE 11.5 mph - N/A   Overcast
9:55 AM 18.0 °F 5.4 °F 15.4 °F 90% 30.43 in 10.0 mi SE 11.5 mph - N/A   Overcast
10:10 AM 17.6 °F 5.0 °F 15.8 °F 93% 30.43 in 10.0 mi SE 11.5 mph - N/A   Overcast
10:55 AM 19.0 °F 7.5 °F 16.0 °F 88% 30.43 in 10.0 mi SSE 10.4 mph - N/A   Overcast
11:08 AM 19.4 °F 8.6 °F 15.8 °F 86% 30.43 in 10.0 mi SSE 9.2 mph - N/A   Overcast
11:55 AM 21.9 °F 10.4 °F 18.1 °F 85% 30.41 in 10.0 mi SE 11.5 mph - N/A   Overcast
12:55 PM 24.6 °F 15.1 °F 21.0 °F 86% 30.40 in 10.0 mi South 9.2 mph - N/A   Overcast
1:55 PM 25.2 °F 14.4 °F 21.9 °F 87% 30.37 in 10.0 mi SSE 11.5 mph - N/A   Overcast
2:55 PM 25.7 °F 14.0 °F 21.9 °F 86% 30.36 in 10.0 mi SSE 13.8 mph - N/A   Overcast
3:55 PM 25.5 °F 13.3 °F 21.4 °F 84% 30.35 in 10.0 mi SSE 15.0 mph - N/A   Overcast
3:57 PM 24.8 °F 13.4 °F 21.2 °F 86% 30.35 in 10.0 mi SSE 12.7 mph - N/A   Overcast
4:55 PM 25.3 °F 15.3 °F 20.7 °F 82% 30.35 in 10.0 mi SSE 10.4 mph - N/A   Overcast
5:55 PM 25.7 °F 16.4 °F 21.6 °F 84% 30.36 in 10.0 mi SSE 9.2 mph - N/A   Overcast
6:55 PM 23.9 °F 14.2 °F 20.8 °F 88% 30.32 in 10.0 mi ESE 9.2 mph - N/A   Overcast
7:13 PM 23.0 °F 13.1 °F 21.2 °F 93% 30.31 in 10.0 mi ESE 9.2 mph - N/A   Overcast
7:55 PM 23.0 °F 13.1 °F 20.5 °F 90% 30.30 in 10.0 mi SE 9.2 mph - N/A   Overcast
8:55 PM 24.1 °F 12.5 °F 20.8 °F 87% 30.28 in 10.0 mi SE 12.7 mph - N/A   Overcast
9:47 PM 23.0 °F 11.7 °F 19.4 °F 86% 30.27 in 10.0 mi SE 11.5 mph - N/A   Overcast
9:55 PM 22.3 °F 10.8 °F 19.2 °F 88% 30.27 in 10.0 mi SE 11.5 mph - N/A   Overcast
10:55 PM 21.7 °F 11.5 °F 19.2 °F 90% 30.25 in 10.0 mi SE 9.2 mph - N/A   Scattered Clouds
11:55 PM 22.3 °F 11.5 °F 19.9 °F 91% 30.23 in 10.0 mi SE 10.4 mph - N/A   Scattered Clouds